User: anonymous   Login
Location: Lawrence
(38.9720°N, 95.2350°W)
Time: 10:22:16
(UTC-05:00)
Language:

ALOS - Orbit

View from above orbital plane
View from above orbital plane
View from above satellite
View from above satellite

Ground track
Ground track

The orbit data is extracted from the following two-line orbital elements,

1 28931U 06002A   16272.13468740  .00000299  00000-0  68024-4 0  9996
2 28931  97.8752 306.2007 0002337  75.3874 284.7588 14.62245624569165
Epoch (UTC): 28 September 2016 03:13:56
Eccentricity: 0.0002337
inclination: 97.8752°
perigee height: 684 km
apogee height: 687 km
right ascension of ascending node: 306.2007°
argument of perigee: 75.3874°
revolutions per day: 14.62245624
mean anomaly at epoch: 284.7588°
orbit number at epoch: 56916

The dashed part of the orbit path shows where the satellite is in the earth's shadow,  

DLR